This is the latest recevied weather packets stored in our database for station/object KQ4PPF. If no packets are shown the sender has not sent any weather packets the latest 10 day(s).
| Time | Temp. | Humidity | Pressure | Rain* | Wind** | Luminosity | Snow |
|---|---|---|---|---|---|---|---|
| 1777418399 | 20° C | 90% | 1016.3 hPa | 0 mm | - | 5 W/m² | - |
| 1777418095 | 20° C | 90% | 1016 hPa | 0 mm | - | 6 W/m² | - |
| 1777417791 | 20° C | 89% | 1015.8 hPa | 0 mm | - | 6 W/m² | - |
| 1777417487 | 20° C | 88% | 1016 hPa | 0 mm | - | 14 W/m² | - |
| 1777417184 | 20° C | 88% | 1016.3 hPa | 0 mm | - | 15 W/m² | - |
| 1777416879 | 20° C | 89% | 1016.1 hPa | 0 mm | - | 14 W/m² | - |
| 1777416575 | 20° C | 90% | 1016.1 hPa | 0 mm | - | 12 W/m² | - |
| 1777416272 | 20° C | 90% | 1015.6 hPa | 0 mm | - | 25 W/m² | - |
| 1777415970 | 20° C | 91% | 1015.8 hPa | 0 mm | - | 22 W/m² | - |
| 1777415666 | 20° C | 91% | 1015.7 hPa | 0 mm | - | 11 W/m² | - |
| 1777415362 | 20° C | 91% | 1015.3 hPa | 0 mm | - | 10 W/m² | - |
| 1777415056 | 20° C | 90% | 1015.2 hPa | 0 mm | - | 14 W/m² | - |
| 1777414756 | 20° C | 90% | 1015.7 hPa | 0 mm | - | 20 W/m² | - |
| 1777414452 | 20° C | 90% | 1015.9 hPa | 0 mm | - | 29 W/m² | - |
| 1777414151 | 20° C | 90% | 1015.4 hPa | 0 mm | - | 43 W/m² | - |
| 1777413848 | 20° C | 90% | 1015.7 hPa | 0 mm | - | 45 W/m² | - |
| 1777413542 | 20° C | 90% | 1015.9 hPa | 0 mm | - | 57 W/m² | - |
| 1777413238 | 20° C | 90% | 1016.4 hPa | 0 mm | - | 63 W/m² | - |
| 1777412934 | 20° C | 90% | 1016.3 hPa | 0 mm | - | 56 W/m² | - |
| 1777412633 | 20° C | 90% | 1016.4 hPa | 0 mm | - | 43 W/m² | - |
| 1777412330 | 20° C | 90% | 1016.4 hPa | 0 mm | - | 35 W/m² | - |
| 1777412026 | 20° C | 90% | 1016.3 hPa | 0 mm | - | 40 W/m² | - |
| 1777411726 | 20° C | 90% | 1016.3 hPa | 0 mm | - | 42 W/m² | - |
| 1777411421 | 20° C | 89% | 1016.1 hPa | 0 mm | - | 50 W/m² | - |
| 1777411121 | 20° C | 89% | 1015.9 hPa | 0 mm | - | 52 W/m² | - |
* Rain latest hour (hover to see other rain measurements)
** Current wind speed in m/s (hover to see current wind gust speed)